Regional Weather Roundup
Issued by NWS

Home | Current Version | Previous Version | Graphics & Text | Print | Product List | Glossary On
Versions: 1 2 3 4 5 6 7 8 9 10 11 12 13 14 15 16 17 18 19 20 21 22 23 24 25 26 27 28 29 30 31 32 33 34 35 36 37 38 39 40 41 42 43 44 45 46 47 48 49 50
000
ASUS45 KTFX 161004
RWRMT
MONTANA HOURLY WEATHER ROUNDUP
NATIONAL WEATHER SERVICE GREAT FALLS MT
404 AM MDT TUE SEP 16 2014

NOTE: "FAIR" INDICATES FEW OR NO CLOUDS BELOW 12000 FEET WITH NO
SIGNIFICANT WEATHER AND/OR OBSTRUCTIONS TO VISIBILITY.

* THESE STATIONS ARE NOT UNDER NWS QUALITY CONTROL. THEY DO NOT
   REPORT WEATHER SUCH AS PRECIPITATION OR FOG.

MTZ001>007-043-161100-
WEST OF THE DIVIDE
CITY           SKY/WX    TMP DP  RH WIND       PRES   REMARKS
KALISPELL      PTCLDY    39  37  93 NW5       30.01S WCI  35
MISSOULA       PTCLDY    46  34  63 CALM      30.06R
BUTTE          PTCLDY    39  30  70 CALM      30.16F
MULLAN PASS    PTCLDY    63  27  26 S6        30.13F
* ESSEX        N/A       42  34  73 SE7        N/A
* LINCOLN      N/A       35  27  73 NW1        N/A
* LOOKOUT PASS N/A       51  30  45 S3         N/A
* POLSON       N/A       51  31  46 N/A        N/A
* RONAN APT    PTCLDY    43  34  71 N/A        N/A
* SEELEY LAKE  N/A       36  29  76 NE1        N/A
* THOMP F APT  PTCLDY    54  28  37 NE3G9      N/A
$$

MTZ008-052>055-161100-
SOUTHWEST MONTANA
CITY           SKY/WX    TMP DP  RH WIND       PRES   REMARKS
BOZEMAN        CLEAR     39  36  89 E5        30.11S WCI  35
DILLON         PTCLDY    50  28  43 S10       30.14R
W YELLOWSTONE  CLEAR     30  25  82 CALM      30.27R
* THREE FORKS  CLEAR     39  -8  13 N/A        N/A
* BOULDER HILL N/A       51  27  39 S10        N/A
* MONIDA PASS  N/A       48  25  41 W1         N/A
* RAYNOLDS PAS N/A       46  28  50 SE7        N/A
* WHITEHALL    N/A       42  34  73 NW3        N/A
* WISE RIVER   N/A       38  27  65 SE1        N/A
$$

MTZ009>010-012-014-046-048-049-054-161100-
EAST SLOPES AND CENTRAL MONTANA
CITY           SKY/WX    TMP DP  RH WIND       PRES   REMARKS
CUT BANK       PTCLDY    43  34  71 NW6       30.02F
GREAT FALLS    PTCLDY    48  36  63 CALM      30.01S
HELENA         PTCLDY    46  36  68 W5        30.07F
MALMSTROM AFB  PTCLDY    52  37  57 SW7       30.02F
* CONRAD       PTCLDY    39  39 100 N/A        N/A
* EAST GLACIER N/A       51  30  45 VRB5       N/A
* MONARCH      N/A       45  25  45 SW1G8      N/A
* PENDROY      N/A       50  36  59 N/A        N/A
* ROGERS PASS  N/A       55  23  29 NW4        N/A
* SAINT MARY   N/A       34  32  92 SE3        N/A
* SWEET GRASS  N/A       53  41  64 SW8        N/A
$$

MTZ011-013-016-021-035-040-045-047-050-051-161100-
NORTH CENTRAL MONTANA
CITY           SKY/WX    TMP DP  RH WIND       PRES   REMARKS
HAVRE          CLEAR     43  41  93 CALM      29.98S
LEWISTOWN      CLEAR     43  36  76 SE9       30.04F
* CHESTER      N/A       42  38  86 N1         N/A
* DENTON       N/A       41  38  89 S4         N/A
* GEYSER       N/A       46  37  71 S10        N/A
* JUDITH GAP   N/A       46  39  77 S9         N/A
* LOMA         N/A       45  42  89 SW6        N/A
$$

MTZ017>020-022>027-061-062-161100-
NORTHEAST MONTANA
CITY           SKY/WX    TMP DP  RH WIND       PRES   REMARKS
GLASGOW        CLEAR     46  36  68 SE9       30.00F
GLENDIVE       CLEAR     39  34  82 N7        30.04S WCI  34
JORDAN         CLEAR     39  37  93 W3        30.01S
SIDNEY         CLEAR     34  30  85 CALM      30.04F
WOLF POINT     CLEAR     37  32  82 CALM      30.02F
* BEAVER HILL  N/A       45  39  80 SE2        N/A
* CIRCLE       N/A       41  37  86 N/A        N/A
* LINDSAY DVD  N/A       47  33  58 N/A        N/A
* NAVAJO       N/A       45  32  60 S2         N/A
* SACO         N/A       41  37  86 N/A        N/A
$$

MTZ028>042-056>058-161100-
SOUTHCENTRAL AND SOUTHEAST MONTANA
CITY           SKY/WX    TMP DP  RH WIND       PRES   REMARKS
BAKER          CLEAR     41  39  93 E3        30.04F
BILLINGS       CLEAR     52  43  72 SW16      30.04S
LIVINGSTON     CLEAR     41  34  76 NW3       30.11F
MILES CITY     CLEAR     46  37  71 NE8       30.01F
* LAUREL APT   CLEAR     45  39  80 N/A        N/A
* ROUNDUP APT  CLEAR     46  39  77 S10        N/A
* ALZADA       N/A       43  41  93 NW3        N/A
* HYSHAM       N/A       54  36  51 W4         N/A
* LAME DEER    N/A       62  38  41 W6         N/A
* REED POINT   N/A       42  40  93 W4         N/A
* ROSCOE HILL  N/A       60  17  19 N/A        N/A
$$

REGIONAL REPORTS...DAKOTAS
CITY           SKY/WX    TMP DP  RH WIND       PRES   REMARKS
WILLISTON      CLEAR     37  34  89 CALM      30.03S
DICKINSON      CLEAR     43  37  79 CALM      30.03F
BEACH          N/A       37  37 100 S5        30.04S WCI  33
CROSBY         CLEAR     43  34  71 CALM      30.03S
TIOGA          CLEAR     32  32 100 CALM      30.06F
WATFORD CITY   CLEAR     32  32 100 CALM      30.02S
BISMARCK       CLEAR     43  37  79 E5        30.07F
GRAND FORKS    CLEAR     50  37  61 SW12      30.05S
FARGO          CLEAR     45  37  74 SW9       30.10F
BUFFALO SD     CLEAR     48  41  77 S3        29.99S
RAPID CITY     CLEAR     43  39  86 NE3       30.04F
$$

REGIONAL REPORTS...WYOMING/IDAHO/WASHINGTON
CITY           SKY/WX    TMP DP  RH WIND       PRES   REMARKS
GILLETTE       CLEAR     55  43  64 SW6       30.10S
SHERIDAN       CLEAR     43  37  79 CALM      30.07F
CODY           MOCLDY    55  37  51 SW12      30.14F
YELLOWSTONE LA PTCLDY    34  28  79 CALM      30.35F
SALMON         CLOUDY    48  37  66 CALM      30.10S
MULLAN PASS    PTCLDY    63  27  26 S6        30.13S
SAND POINT     PTCLDY    41  41 100 CALM      29.98R
SPOKANE        MOCLDY    61  37  41 E9        29.93S

$$



USA.gov is the U.S. government's official web portal to all federal, state and local government web resources and services.